TimeMDT,TemperatureF,Dew PointF,Humidity,Sea Level PressureIn,VisibilityMPH,Wind Direction,Wind SpeedMPH,Gust SpeedMPH,PrecipitationIn,Events,Conditions,WindDirDegrees,DateUTC
1:24 AM,39.2,35.6,87,29.63,10.0,SE,3.5,-,0.00,,Overcast,140,2012-10-23 07:24:00
1:51 AM,39.0,36.0,89,29.64,10.0,ESE,6.9,-,0.00,,Mostly Cloudy,120,2012-10-23 07:51:00
1:59 AM,39.2,35.6,87,29.62,10.0,SE,9.2,-,N/A,,Mostly Cloudy,130,2012-10-23 07:59:00
2:51 AM,39.9,37.0,89,29.64,10.0,Calm,Calm,-,N/A,,Overcast,0,2012-10-23 08:51:00
3:51 AM,39.9,37.0,89,29.64,10.0,East,4.6,-,N/A,,Mostly Cloudy,100,2012-10-23 09:51:00
4:51 AM,37.9,35.1,89,29.64,6.0,Calm,Calm,-,N/A,,Partly Cloudy,0,2012-10-23 10:51:00
5:48 AM,37.4,33.8,87,29.61,2.5,Calm,Calm,-,N/A,,Clear,0,2012-10-23 11:48:00
5:51 AM,37.9,35.1,89,29.65,3.0,Calm,Calm,-,N/A,,Clear,0,2012-10-23 11:51:00
6:20 AM,37.4,33.8,87,29.63,2.5,NW,3.5,-,N/A,,Partly Cloudy,310,2012-10-23 12:20:00
6:44 AM,37.4,35.6,93,29.64,4.0,Calm,Calm,-,N/A,,Mostly Cloudy,0,2012-10-23 12:44:00
6:51 AM,37.9,36.0,93,29.68,6.0,Calm,Calm,-,N/A,,Mostly Cloudy,0,2012-10-23 12:51:00
7:51 AM,39.9,36.0,86,29.70,10.0,West,6.9,-,N/A,,Overcast,280,2012-10-23 13:51:00
8:29 AM,39.2,37.4,93,29.67,4.0,West,11.5,-,N/A,,Overcast,280,2012-10-23 14:29:00
8:42 AM,41.0,37.4,87,29.68,2.5,WNW,13.8,-,N/A,,Overcast,290,2012-10-23 14:42:00
8:51 AM,41.0,37.9,89,29.72,4.0,WNW,12.7,-,N/A,,Overcast,290,2012-10-23 14:51:00
9:17 AM,41.0,37.4,87,29.69,10.0,WNW,13.8,-,N/A,,Overcast,290,2012-10-23 15:17:00
9:51 AM,41.0,37.9,89,29.75,9.0,WNW,12.7,-,0.01,Rain,Light Rain,300,2012-10-23 15:51:00
10:41 AM,41.0,37.4,87,29.72,7.0,NW,11.5,-,0.02,Rain,Rain,320,2012-10-23 16:41:00
10:51 AM,41.0,37.9,89,29.77,8.0,NW,9.2,-,0.03,Rain,Light Rain,320,2012-10-23 16:51:00
11:01 AM,41.0,37.4,87,29.73,10.0,NW,8.1,-,0.00,Rain,Light Rain,320,2012-10-23 17:01:00
11:43 AM,41.0,37.4,87,29.73,5.0,North,4.6,-,0.05,Rain,Light Rain,360,2012-10-23 17:43:00
11:51 AM,41.0,37.9,89,29.79,10.0,WNW,8.1,-,0.05,Rain,Light Rain,290,2012-10-23 17:51:00
11:56 AM,41.0,37.4,87,29.75,10.0,WNW,10.4,-,0.00,,Overcast,290,2012-10-23 17:56:00
12:51 PM,42.1,37.0,82,29.80,10.0,NW,10.4,-,0.00,,Overcast,320,2012-10-23 18:51:00
12:59 PM,42.8,37.4,81,29.76,10.0,NW,15.0,-,N/A,,Overcast,320,2012-10-23 18:59:00
2:04 PM,42.8,37.4,81,29.78,10.0,WNW,15.0,20.7,N/A,,Overcast,300,2012-10-23 20:04:00
2:23 PM,39.2,35.6,87,29.78,10.0,WNW,16.1,26.5,N/A,,Overcast,300,2012-10-23 20:23:00
3:16 PM,39.2,35.6,87,29.80,10.0,WNW,13.8,-,N/A,,Overcast,300,2012-10-23 21:16:00
3:25 PM,39.2,35.6,87,29.81,10.0,WNW,13.8,-,N/A,,Overcast,290,2012-10-23 21:25:00
3:51 PM,41.0,35.1,79,29.84,10.0,WNW,12.7,18.4,N/A,,Mostly Cloudy,300,2012-10-23 21:51:00
4:00 PM,41.0,35.6,81,29.82,10.0,NW,15.0,21.9,N/A,,Scattered Clouds,310,2012-10-23 22:00:00
4:51 PM,39.0,30.9,73,29.88,10.0,WNW,15.0,24.2,0.01,,Scattered Clouds,290,2012-10-23 22:51:00
5:51 PM,37.9,30.0,73,29.90,10.0,WNW,9.2,-,N/A,,Clear,290,2012-10-23 23:51:00
6:51 PM,36.0,28.9,76,29.93,10.0,WNW,9.2,-,N/A,,Clear,290,2012-10-24 00:51:00
7:51 PM,35.1,28.0,76,29.93,10.0,West,9.2,-,N/A,,Clear,280,2012-10-24 01:51:00
8:51 PM,32.0,27.0,82,29.93,10.0,West,9.2,-,N/A,,Clear,270,2012-10-24 02:51:00
9:51 PM,30.9,26.1,82,29.93,10.0,WSW,3.5,-,N/A,,Clear,240,2012-10-24 03:51:00
10:51 PM,30.9,25.0,79,29.95,10.0,Calm,Calm,-,N/A,,Clear,0,2012-10-24 04:51:00
11:51 PM,30.9,25.0,79,29.96,10.0,WNW,5.8,-,N/A,,Clear,290,2012-10-24 05:51:00